Austin, MN

9:53 PM CST on February 24, 2017 (GMT -0600)
Austin Municipal

Weather History for KAUM - July, 2013

Change the Weather History Date:

Monday, July 29, 2013

  Actual Average Record
Temperature  
Mean Temperature 64 °F -  
Max Temperature 77 °F 78 °F 93 °F (1999)
Min Temperature 50 °F 60 °F 50 °F (2013)
Degree Days  
Heating Degree Days 2    
Growing Degree Days 14 (Base 50)    
Moisture  
Dew Point 50 °F    
Average Humidity 63    
Maximum Humidity 94    
Minimum Humidity 36    
Precipitation  
Precipitation 0.00 in - - ()
Sea Level Pressure  
Sea Level Pressure 30.11 in    
Wind  
Wind Speed 2 mph (South)    
Max Wind Speed 12 mph    
Max Gust Speed 21 mph    
Visibility 10 miles    
Events      
Averages and records for this station are not official NWS values.
T = Trace of Precipitation, MM = Missing Value Source: NWS Daily Summary

Daily Weather History Graph

Daily Weather History Graph

Search for Another Location

Airport or City:

Trip Planner

Search our weather history database for the weather conditions in past years. The results will help you decide how hot, cold, wet, or windy it might be!

Date:

Astronomy

Jul. 29, 2013 Rise Set
Actual Time 5:57 AM CDT 8:37 PM CDT
Civil Twilight 5:24 AM CDT 9:10 PM CDT
Nautical Twilight 4:43 AM CDT 9:52 PM CDT
Astronomical Twilight 3:55 AM CDT 10:39 PM CDT
Moon No Moon Rise 1:57 PM CDT (7/29)
Length of Visible Light 15h 45m
Length of Day
14h 39m
Waning Gibbous, 50% of the Moon is Illuminated
Jul 29
Waning Gibbous
Jul 29
Last Quarter
Aug 6
New
Aug 14
First Quarter
Aug 20
Full

Hourly Weather History & Observations

Time (CDT) Temp. Dew Point Humidity Pressure Visibility Wind Dir Wind Speed Gust Speed Precip Events Conditions
12:16 AM 57.2 °F 51.8 °F 82% 30.08 in 10.0 mi Calm Calm - N/A   Clear
12:36 AM 55.4 °F 51.8 °F 88% 30.08 in 10.0 mi Calm Calm - N/A   Clear
12:56 AM 55.4 °F 51.8 °F 88% 30.08 in 10.0 mi Calm Calm - N/A   Clear
1:16 AM 55.4 °F 51.8 °F 88% 30.08 in 10.0 mi Calm Calm - N/A   Clear
1:36 AM 53.6 °F 51.8 °F 94% 30.08 in 10.0 mi Calm Calm - N/A   Clear
1:56 AM 53.6 °F 51.8 °F 94% 30.08 in 10.0 mi Calm Calm - N/A   Scattered Clouds
2:16 AM 53.6 °F 51.8 °F 94% 30.09 in 10.0 mi Calm Calm - N/A   Scattered Clouds
2:36 AM 53.6 °F 50.0 °F 88% 30.09 in 10.0 mi Calm Calm - N/A   Clear
2:56 AM 53.6 °F 48.2 °F 82% 30.09 in 10.0 mi Calm Calm - N/A   Clear
3:17 AM 53.6 °F 50.0 °F 88% 30.09 in 10.0 mi Calm Calm - N/A   Clear
3:36 AM 53.6 °F 50.0 °F 88% 30.09 in 10.0 mi Calm Calm - N/A   Clear
3:56 AM 51.8 °F 48.2 °F 88% 30.09 in 10.0 mi Calm Calm - N/A   Clear
4:17 AM 51.8 °F 48.2 °F 88% 30.09 in 10.0 mi Calm Calm - N/A   Clear
4:36 AM 51.8 °F 48.2 °F 88% 30.09 in 10.0 mi Calm Calm - N/A   Clear
4:56 AM 51.8 °F 48.2 °F 88% 30.09 in 10.0 mi Calm Calm - N/A   Clear
5:17 AM 51.8 °F 48.2 °F 88% 30.10 in 10.0 mi Calm Calm - N/A   Clear
5:36 AM 51.8 °F 48.2 °F 88% 30.10 in 10.0 mi Calm Calm - N/A   Clear
5:56 AM 51.8 °F 48.2 °F 88% 30.10 in 10.0 mi Calm Calm - N/A   Clear
6:17 AM 50.0 °F 48.2 °F 94% 30.11 in 7.0 mi Calm Calm - N/A   Clear
6:36 AM 51.8 °F 48.2 °F 88% 30.11 in 10.0 mi Calm Calm - N/A   Clear
6:56 AM 51.8 °F 50.0 °F 94% 30.11 in 10.0 mi Calm Calm - N/A   Clear
7:17 AM 53.6 °F 51.8 °F 94% 30.12 in 10.0 mi Calm Calm - N/A   Clear
7:36 AM 55.4 °F 51.8 °F 88% 30.12 in 10.0 mi Calm Calm - N/A   Clear
7:56 AM 57.2 °F 53.6 °F 88% 30.13 in 10.0 mi Calm Calm - N/A   Clear
8:17 AM 60.8 °F 53.6 °F 77% 30.13 in 10.0 mi SE 3.5 mph - N/A   Clear
8:36 AM 64.4 °F 53.6 °F 68% 30.14 in 10.0 mi South 3.5 mph - N/A   Clear
8:56 AM 64.4 °F 53.6 °F 68% 30.14 in 10.0 mi SSW 4.6 mph - N/A   Clear
9:17 AM 66.2 °F 53.6 °F 64% 30.15 in 10.0 mi South 5.8 mph - N/A   Clear
9:36 AM 68.0 °F 53.6 °F 60% 30.15 in 10.0 mi South 5.8 mph - N/A   Clear
9:56 AM 69.8 °F 51.8 °F 53% 30.15 in 10.0 mi South 6.9 mph - N/A   Clear
10:16 AM 68.0 °F 51.8 °F 56% 30.15 in 10.0 mi SSW 5.8 mph - N/A   Clear
10:36 AM 69.8 °F 51.8 °F 53% 30.15 in 10.0 mi SSW 6.9 mph - N/A   Clear
10:57 AM 69.8 °F 51.8 °F 53% 30.15 in 10.0 mi SSW 8.1 mph - N/A   Clear
11:16 AM 69.8 °F 51.8 °F 53% 30.15 in 10.0 mi South 3.5 mph - N/A   Clear
11:36 AM 69.8 °F 51.8 °F 53% 30.15 in 10.0 mi South 5.8 mph - N/A   Scattered Clouds
11:56 AM 71.6 °F 51.8 °F 50% 30.15 in 10.0 mi Calm Calm - N/A   Scattered Clouds
12:16 PM 71.6 °F 48.2 °F 43% 30.14 in 10.0 mi South 4.6 mph - N/A   Scattered Clouds
12:37 PM 71.6 °F 46.4 °F 41% 30.14 in 10.0 mi Calm Calm - N/A   Scattered Clouds
12:56 PM 73.4 °F 48.2 °F 41% 30.13 in 10.0 mi South 5.8 mph - N/A   Scattered Clouds
1:16 PM 73.4 °F 50.0 °F 44% 30.12 in 10.0 mi South 9.2 mph - N/A   Mostly Cloudy
1:36 PM 73.4 °F 48.2 °F 41% 30.12 in 10.0 mi SE 3.5 mph - N/A   Scattered Clouds
1:56 PM 73.4 °F 48.2 °F 41% 30.11 in 10.0 mi SE 6.9 mph - N/A   Scattered Clouds
2:16 PM 75.2 °F 48.2 °F 38% 30.12 in 10.0 mi SE 8.1 mph - N/A   Scattered Clouds
2:36 PM 75.2 °F 48.2 °F 38% 30.11 in 10.0 mi SE 6.9 mph - N/A   Mostly Cloudy
2:56 PM 75.2 °F 48.2 °F 38% 30.11 in 10.0 mi SE 11.5 mph 20.7 mph N/A   Scattered Clouds
3:16 PM 75.2 °F 48.2 °F 38% 30.11 in 10.0 mi SSE 6.9 mph - N/A   Scattered Clouds
3:36 PM 75.2 °F 48.2 °F 38% 30.11 in 10.0 mi South 9.2 mph - N/A   Mostly Cloudy
3:56 PM 77.0 °F 48.2 °F 36% 30.11 in 10.0 mi South 9.2 mph - N/A   Mostly Cloudy
4:16 PM 77.0 °F 48.2 °F 36% 30.11 in 10.0 mi SSW 8.1 mph - N/A   Scattered Clouds
4:36 PM 77.0 °F 48.2 °F 36% 30.11 in 10.0 mi SSE 8.1 mph 16.1 mph N/A   Mostly Cloudy
4:56 PM 75.2 °F 48.2 °F 38% 30.11 in 10.0 mi South 10.4 mph - N/A   Scattered Clouds
5:16 PM 75.2 °F 48.2 °F 38% 30.11 in 10.0 mi South 6.9 mph - N/A   Scattered Clouds
5:37 PM 77.0 °F 48.2 °F 36% 30.11 in 10.0 mi SSW 8.1 mph - N/A   Scattered Clouds
5:56 PM 75.2 °F 48.2 °F 38% 30.11 in 10.0 mi SSW 9.2 mph - N/A   Scattered Clouds
6:16 PM 75.2 °F 48.2 °F 38% 30.10 in 10.0 mi South 6.9 mph - N/A   Scattered Clouds
6:36 PM 75.2 °F 48.2 °F 38% 30.10 in 10.0 mi South 4.6 mph - N/A   Scattered Clouds
6:56 PM 73.4 °F 48.2 °F 41% 30.10 in 10.0 mi SSE 5.8 mph - N/A   Clear
7:17 PM 73.4 °F 48.2 °F 41% 30.10 in 10.0 mi South 8.1 mph - N/A   Clear
7:36 PM 73.4 °F 48.2 °F 41% 30.10 in 10.0 mi South 6.9 mph - N/A   Clear
7:56 PM 71.6 °F 50.0 °F 46% 30.10 in 10.0 mi SSE 3.5 mph - N/A   Clear
8:16 PM 71.6 °F 50.0 °F 46% 30.10 in 10.0 mi South 4.6 mph - N/A   Scattered Clouds
8:36 PM 69.8 °F 51.8 °F 53% 30.11 in 10.0 mi South 4.6 mph - N/A   Scattered Clouds
8:57 PM 69.8 °F 51.8 °F 53% 30.11 in 10.0 mi South 3.5 mph - N/A   Clear
9:16 PM 68.0 °F 50.0 °F 52% 30.12 in 10.0 mi SSE 3.5 mph - N/A   Clear
9:36 PM 66.2 °F 51.8 °F 60% 30.12 in 10.0 mi Calm Calm - N/A   Clear
9:56 PM 66.2 °F 51.8 °F 60% 30.13 in 10.0 mi SSE 3.5 mph - N/A   Clear
10:16 PM 66.2 °F 51.8 °F 60% 30.13 in 10.0 mi South 4.6 mph - N/A   Clear
10:36 PM 64.4 °F 53.6 °F 68% 30.13 in 10.0 mi SSE 4.6 mph - N/A   Clear
10:56 PM 64.4 °F 53.6 °F 68% 30.13 in 10.0 mi Calm Calm - N/A   Clear
11:16 PM 64.4 °F 53.6 °F 68% 30.13 in 10.0 mi Calm Calm - N/A   Clear
11:36 PM 64.4 °F 53.6 °F 68% 30.12 in 10.0 mi SSE 3.5 mph - N/A   Mostly Cloudy
11:57 PM 64.4 °F 53.6 °F 68% 30.12 in 10.0 mi SSE 3.5 mph - N/A   Overcast